1499806800.59,13712,19.44,74026.8,4.41,-19.07,-21.13,0,*74
1499806801.84,13713,19.44,74020.8,4.39,-18.73,-20.83,0,*70
1499806803.09,13714,19.44,74022.8,4.39,-18.59,-20.73,0,*70
1499806804.33,13715,19.44,74020.5,4.39,-18.59,-20.69,0,*7A
1499806805.56,13716,19.44,74020.8,4.41,-18.65,-20.83,0,*7D
1499806806.79,13717,19.44,74018.3,4.41,-18.49,-20.49,0,*74
1499806808.02,13718,19.44,74024.0,4.43,-18.49,-20.63,0,*71
1499806809.22,13719,19.44,74030.3,4.41,-18.69,-20.69,0,*7A
1499806810.45,13720,19.44,74026.5,4.41,-18.45,-20.49,0,*7C
1499806811.7,13721,19.44,74020.0,4.43,-18.59,-20.63,0,*7A
1499806812.93,13722,19.44,74024.8,4.43,-18.65,-20.63,0,*76
1499806814.16,13723,19.44,74020.5,4.43,-18.49,-20.59,0,*70
1499806815.4,13724,19.44,74014.8,4.43,-18.65,-20.79,0,*7B
1499806816.63,13725,19.44,74020.0,4.45,-18.73,-20.79,0,*7B
1499806817.83,13726,19.44,74030.3,4.41,-18.83,-20.93,0,*77
1499806819.05,13727,19.44,74032.0,4.45,-18.89,-21.09,0,*7A
1499806820.28,13728,19.44,74032.3,4.45,-18.79,-21.03,0,*70
1499806821.47,13729,19.44,74040.5,4.45,-18.65,-21.09,0,*76
1499806822.67,13730,19.44,74056.8,4.45,-18.79,-21.09,0,*73
1499806823.94,13731,19.44,74056.3,4.43,-18.59,-20.79,0,*70
1499806825.18,13732,19.44,74056.3,4.43,-18.65,-20.79,0,*7C
1499806826.39,13733,19.44,74052.8,4.45,-18.73,-20.93,0,*78
1499806827.61,13734,19.44,74042.0,4.45,-18.79,-21.03,0,*7D
1499806828.83,13735,19.44,74038.0,4.45,-18.89,-21.09,0,*79
1499806830.09,13736,19.44,74034.5,4.47,-18.69,-20.83,0,*75
1499806831.33,13737,19.44,74032.3,4.43,-18.59,-20.73,0,*7C
1499806832.57,13738,19.44,74034.8,4.45,-18.59,-20.89,0,*70
1499806833.79,13739,19.44,74032.8,4.45,-18.89,-20.93,0,*77
1499806835.02,13740,19.44,74032.3,4.45,-18.79,-21.03,0,*7E
1499806836.23,13741,19.44,74038.8,4.45,-18.79,-20.89,0,*7C
1499806837.44,13742,19.44,74038.3,4.45,-18.65,-20.89,0,*72
1499806838.67,13743,19.44,74044.0,4.45,-18.59,-20.73,0,*79
1499806839.91,13744,19.44,74050.3,4.45,-18.59,-20.79,0,*74
1499806841.16,13745,19.44,74048.3,4.47,-18.73,-20.83,0,*7A
1499806842.41,13746,19.44,74040.8,4.45,-18.89,-21.03,0,*77
1499806843.64,13747,19.44,74038.5,4.45,-18.79,-21.03,0,*79
1499806844.89,13748,19.44,74042.0,4.47,-18.59,-20.73,0,*70
1499806846.11,13749,19.44,74040.5,4.45,-18.73,-20.79,0,*71
1499806847.34,13750,19.44,74034.0,4.45,-19.03,-21.33,0,*70
1499806848.57,13751,19.44,74034.5,4.45,-19.07,-21.23,0,*74
1499806849.79,13752,19.44,74032.8,4.45,-18.93,-21.09,0,*73
1499806851.07,13753,19.44,74034.0,4.47,-18.89,-20.99,0,*73
1499806852.27,13754,19.44,74032.5,4.45,-19.03,-21.17,0,*72
1499806853.5,13755,19.44,74034.3,4.47,-18.99,-21.17,0,*73
1499806854.73,13756,19.44,74036.5,4.47,-18.99,-21.17,0,*70
1499806855.99,13757,19.44,74034.0,4.47,-18.99,-21.23,0,*76
1499806857.23,13758,19.44,74036.0,4.47,-19.13,-21.17,0,*7D
1499806858.49,13759,19.44,74040.8,4.47,-19.17,-21.27,0,*7B
1499806859.71,13760,19.44,74042.5,4.45,-19.23,-21.39,0,*7B
1499806860.95,13761,19.44,74044.0,4.45,-19.31,-21.39,0,*79
1499806862.18,13762,19.44,74044.5,4.45,-19.31,-21.39,0,*7A
1499806863.4,13763,19.44,74040.3,4.45,-19.41,-21.39,0,*7C
1499806864.63,13764,19.44,74036.8,4.45,-19.41,-21.39,0,*7B
1499806865.9,13765,19.44,74034.3,4.43,-19.41,-21.53,0,*70
1499806867.15,13766,19.44,74034.5,4.43,-19.51,-21.53,0,*72
1499806868.39,13767,19.44,74038.0,4.43,-19.41,-21.47,0,*77
1499806869.62,13768,19.44,74040.0,4.43,-19.37,-21.43,0,*7D
1499806870.84,13769,19.44,74042.8,4.43,-19.37,-21.43,0,*7C
1499806872.06,13770,19.44,74046.0,4.41,-19.41,-21.43,0,*77
1499806873.28,13771,19.44,74046.5,4.41,-19.41,-21.43,0,*76
1499806874.51,13772,19.44,74046.8,4.43,-19.37,-21.39,0,*7B
1499806875.74,13773,19.44,74040.8,4.41,-19.41,-21.47,0,*70
1499806876.96,13774,19.44,74036.3,4.41,-19.41,-21.43,0,*73
1499806878.18,13775,19.44,74036.8,4.41,-19.41,-21.47,0,*76
1499806879.46,13776,19.44,74038.5,4.43,-19.31,-21.33,0,*73
1499806880.66,13777,19.44,74038.3,4.41,-19.37,-21.43,0,*71
1499806881.89,13778,19.44,74036.3,4.41,-19.27,-21.43,0,*7F
1499806883.1,13779,19.44,74038.0,4.41,-19.13,-21.39,0,*74
1499806884.34,13780,19.44,74044.3,4.39,-18.89,-21.47,0,*76
1499806885.57,13781,19.44,74046.0,4.39,-18.41,-21.17,0,*76
1499806886.79,13782,19.44,74048.3,4.39,-18.21,-21.17,0,*73
1499806888.04,13783,19.44,74048.5,4.39,-18.41,-21.33,0,*72
1499806889.27,13784,19.44,74050.3,4.39,-18.69,-21.47,0,*7C
1499806890.51,13785,19.44,74050.3,4.39,-18.59,-21.43,0,*7A
1499806891.78,13786,19.44,74050.8,4.39,-18.59,-21.33,0,*7E
1499806893.04,13787,19.44,74054.3,4.39,-18.83,-21.27,0,*7D
1499806894.29,13788,19.44,74054.0,4.35,-18.73,-21.27,0,*71
1499806895.54,13789,19.44,74046.0,4.39,-18.99,-21.27,0,*78
1499806896.79,13790,19.44,74044.0,4.39,-19.03,-21.27,0,*72
1499806898.02,13791,19.44,74042.3,4.39,-19.03,-21.17,0,*70
1499806899.27,13792,19.44,74044.8,4.35,-18.99,-21.03,0,*78
1499806900.5,13793,19.44,74048.0,4.35,-19.13,-21.17,0,*7F
1499806901.76,13794,19.44,74046.3,4.35,-19.13,-21.03,0,*7D
1499806903.01,13795,19.44,74048.0,4.35,-19.03,-21.03,0,*7D
1499806904.26,13796,19.44,74052.8,4.35,-19.13,-21.03,0,*7F
1499806905.52,13797,19.44,74050.0,4.35,-19.13,-21.03,0,*7E
1499806906.75,13798,19.44,74050.5,4.35,-19.17,-21.13,0,*74
1499806907.98,13799,19.44,74050.3,4.35,-19.17,-21.13,0,*75
1499806909.23,13800,19.44,74054.5,4.35,-19.13,-20.99,0,*7D
1499806910.49,13801,19.44,74052.3,4.39,-19.17,-21.03,0,*76
1499806911.72,13802,19.44,74046.8,4.35,-19.17,-21.13,0,*78
1499806912.94,13803,19.44,74050.5,4.35,-19.17,-21.13,0,*79
1499806914.17,13804,19.44,74048.5,4.35,-19.17,-21.17,0,*7A
1499806915.44,13805,19.44,74046.0,4.39,-19.27,-21.17,0,*74
1499806916.69,13806,19.44,74040.8,4.35,-19.31,-21.17,0,*7C
1499806917.92,13807,19.44,74040.8,4.35,-19.17,-21.17,0,*79
1499806919.15,13808,19.44,74040.3,4.35,-19.17,-21.13,0,*72
1499806920.38,13809,19.44,74042.3,4.35,-19.03,-20.89,0,*74
1499806921.63,13810,19.44,74038.8,4.39,-18.89,-20.69,0,*7D
1499806922.87,13811,19.44,74042.0,4.39,-19.03,-20.83,0,*7B
1499806924.11,13812,19.44,74046.8,4.39,-19.17,-21.17,0,*71
1499806925.33,13813,19.44,74040.5,4.35,-19.17,-21.13,0,*78
1499806926.59,13814,19.44,74036.0,4.39,-19.27,-21.13,0,*70
1499806927.82,13815,19.44,74036.5,4.35,-19.17,-21.13,0,*7E
1499806929.05,13816,19.44,74042.5,4.39,-19.17,-21.13,0,*71
1499806930.28,13817,19.44,74036.0,4.39,-19.17,-21.17,0,*74
1499806931.53,13818,19.44,74038.5,4.39,-19.31,-21.17,0,*7F
1499806932.79,13819,19.44,74042.8,4.35,-19.27,-21.17,0,*75
1499806934.05,13820,19.44,74034.0,4.35,-19.31,-21.17,0,*78
1499806935.3,13821,19.44,74038.5,4.35,-19.31,-21.17,0,*79
1499806936.56,13822,19.44,74036.0,4.35,-19.17,-21.03,0,*7B
1499806937.85,13823,19.44,74034.5,4.35,-19.27,-21.27,0,*7F
1499806939.13,13824,19.44,74032.5,4.35,-19.31,-21.27,0,*7F
1499806940.36,13825,19.44,74032.5,4.35,-19.17,-21.13,0,*7D
1499806941.61,13826,19.44,74028.0,4.35,-19.27,-21.13,0,*7D
1499806942.84,13827,19.44,74030.5,4.39,-19.17,-21.13,0,*73
1499806944.1,13828,19.44,74030.3,4.35,-19.17,-21.03,0,*71
1499806945.35,13829,19.44,74030.0,4.39,-19.27,-21.13,0,*7E
1499806946.61,13830,19.44,74028.0,4.35,-19.27,-21.13,0,*7A
1499806947.87,13831,19.44,74022.8,4.35,-19.27,-21.13,0,*7B
1499806949.13,13832,19.44,74020.0,4.35,-19.31,-21.17,0,*7B
1499806950.38,13833,19.38,74026.3,4.35,-19.31,-21.17,0,*7A
1499806951.64,13834,19.44,74030.5,4.35,-19.31,-21.17,0,*7D
1499806952.9,13835,19.44,74020.8,4.35,-19.27,-21.17,0,*7B
1499806954.15,13836,19.38,74022.8,4.35,-19.17,-21.03,0,*7E
1499806955.41,13837,19.44,74026.8,4.35,-19.31,-21.13,0,*7A
1499806956.65,13838,19.44,74030.3,4.35,-19.41,-21.17,0,*76
1499806957.93,13839,19.44,74030.5,4.39,-19.41,-21.27,0,*78
1499806959.21,13840,19.44,74032.0,4.35,-19.41,-21.27,0,*7A
1499806960.42,13841,19.44,74034.8,4.33,-19.37,-21.17,0,*7F
1499806961.65,13842,19.44,74042.8,4.33,-19.31,-21.17,0,*7A
1499806962.92,13843,19.44,74038.8,4.39,-19.41,-21.33,0,*70
1499806964.13,13844,19.44,74034.0,4.33,-19.51,-21.47,0,*7F
1499806965.36,13845,19.44,74034.0,4.33,-19.51,-21.33,0,*7D
1499806966.59,13846,19.38,74026.3,4.33,-19.57,-21.39,0,*72
1499806967.82,13847,19.44,74030.5,4.33,-19.37,-21.33,0,*7F
1499806969.06,13848,19.44,74034.5,4.33,-19.47,-21.23,0,*76
1499806970.29,13849,19.44,74036.8,4.33,-19.51,-21.33,0,*71
1499806971.52,13850,19.44,74040.0,4.31,-19.17,-21.09,0,*70
1499806972.75,13851,19.44,74042.5,4.33,-18.93,-21.09,0,*7E
1499806973.98,13852,19.38,74036.3,4.33,-18.93,-21.17,0,*72
1499806975.24,13853,19.44,74042.8,4.31,-19.03,-21.23,0,*7E
1499806976.47,13854,19.44,74042.8,4.33,-18.93,-21.09,0,*7B
1499806977.7,13855,19.38,74040.5,4.31,-19.03,-21.17,0,*7F
1499806978.93,13856,19.44,74040.5,4.31,-19.17,-21.09,0,*76
1499806980.16,13857,19.38,74036.5,4.31,-19.17,-21.09,0,*77
1499806981.38,13858,19.44,74040.0,4.33,-19.23,-21.09,0,*7D
1499806982.62,13859,19.38,74036.3,4.33,-19.23,-21.17,0,*73
1499806983.85,13860,19.44,74038.5,4.33,-19.23,-21.09,0,*76
1499806985.1,13861,19.38,74032.5,4.31,-19.23,-21.09,0,*75
1499806986.36,13862,19.44,74032.5,4.33,-19.23,-21.03,0,*7E
1499806987.58,13863,19.44,74036.8,4.33,-19.23,-21.09,0,*75
1499806988.87,13864,19.44,74028.8,4.31,-19.23,-21.03,0,*7A
1499806990.15,13865,19.38,74018.5,4.31,-19.23,-21.03,0,*7B
1499806991.44,13866,19.44,74018.3,4.31,-19.23,-21.03,0,*78
1499806992.72,13867,19.44,74020.5,4.31,-19.23,-21.03,0,*79
1499806994.0,13868,19.44,74016.8,4.31,-19.23,-21.03,0,*76
1499806995.26,13869,19.44,74016.8,4.31,-19.23,-21.09,0,*7D
1499806996.52,13870,19.44,74024.3,4.31,-19.31,-21.17,0,*79
1499806997.72,13871,19.38,74020.0,4.29,-19.37,-21.09,0,*78
1499806998.96,13872,19.44,74028.5,4.29,-19.27,-21.13,0,*71
1499807000.2,13873,19.44,74030.5,4.29,-19.27,-21.13,0,*70
1499807001.41,13874,19.44,74030.5,4.29,-19.37,-21.13,0,*76
1499807002.65,13875,19.44,74032.5,4.29,-19.27,-21.13,0,*76
1499807003.9,13876,19.44,74034.8,4.27,-19.27,-20.99,0,*78
1499807005.16,13877,19.44,74036.8,4.29,-19.23,-20.99,0,*73
1499807006.42,13878,19.44,74042.3,4.27,-19.27,-21.03,0,*74
1499807007.68,13879,19.38,74040.5,4.29,-19.23,-20.99,0,*7D
1499807008.92,13880,19.44,74042.5,4.31,-19.17,-20.89,0,*74
1499807010.16,13881,19.44,74038.0,4.29,-19.23,-20.93,0,*70
1499807011.4,13882,19.44,74038.5,4.31,-19.17,-20.89,0,*76
1499807012.63,13883,19.38,74034.5,4.31,-19.03,-20.73,0,*77
1499807013.87,13884,19.44,74034.0,4.29,-19.13,-20.79,0,*72
1499807015.08,13885,19.44,74032.0,4.29,-19.13,-20.69,0,*72
1499807016.28,13886,19.44,74030.5,4.29,-19.07,-20.69,0,*74
1499807017.49,13887,19.38,74024.5,4.29,-18.99,-20.69,0,*73
1499807018.72,13888,19.44,74028.5,4.29,-18.93,-20.63,0,*7C
1499807019.96,13889,19.44,74028.3,4.31,-18.79,-20.43,0,*72
1499807021.2,13890,19.38,74028.0,4.29,-18.99,-20.53,0,*7C
1499807022.45,13891,19.44,74028.0,4.29,-19.23,-20.79,0,*75
1499807023.69,13892,19.38,74028.3,4.29,-19.13,-20.83,0,*70
1499807024.92,13893,19.44,74030.5,4.29,-19.13,-20.79,0,*74
1499807026.13,13894,19.38,74030.3,4.29,-19.13,-20.69,0,*72
1499807027.4,13895,19.44,74026.3,4.29,-19.27,-20.99,0,*7B
1499807028.67,13896,19.44,74024.5,4.31,-19.23,-20.89,0,*74
1499807029.9,13897,19.44,74030.5,4.27,-19.27,-20.73,0,*73
1499807031.13,13898,19.44,74030.5,4.29,-19.23,-20.69,0,*7D
1499807032.34,13899,19.38,74030.0,4.27,-19.13,-20.69,0,*71
1499807033.55,13900,19.44,74030.8,4.29,-18.99,-20.63,0,*77
1499807034.77,13901,19.44,74030.5,4.27,-18.83,-20.49,0,*7B
1499807035.97,13902,19.44,74034.0,4.27,-19.03,-20.59,0,*70
1499807037.21,13903,19.38,74028.8,4.29,-19.07,-20.49,0,*7A
1499807038.47,13904,19.44,74022.5,4.29,-18.93,-20.53,0,*7A
1499807039.68,13905,19.44,74022.3,4.27,-19.13,-20.73,0,*7E
1499807040.91,13906,19.38,74012.8,4.29,-19.23,-20.69,0,*7B
1499807042.17,13907,19.38,74006.0,4.29,-18.93,-20.49,0,*72
1499807043.38,13908,19.44,74012.8,4.29,-18.79,-20.43,0,*73
1499807044.59,13909,19.44,74024.5,4.29,-18.83,-20.43,0,*77
1499807045.83,13910,19.44,74028.0,4.29,-19.13,-20.53,0,*76
1499807047.04,13911,19.44,74028.3,4.29,-19.07,-20.69,0,*7B
1499807048.27,13912,19.38,74032.5,4.29,-19.23,-20.69,0,*7E
1499807049.51,13913,19.44,74040.8,4.31,-19.17,-20.73,0,*7A
1499807050.75,13914,19.44,74040.0,4.31,-19.17,-20.59,0,*75
1499807051.96,13915,19.38,74038.0,4.29,-19.07,-20.63,0,*75
1499807053.15,13916,19.44,74042.3,4.27,-19.03,-20.69,0,*76
1499807054.38,13917,19.44,74044.0,4.29,-18.79,-20.35,0,*7C
1499807055.61,13918,19.38,74042.3,4.29,-18.79,-20.35,0,*73
1499807056.84,13919,19.44,74040.3,4.29,-18.69,-20.19,0,*7D
1499807058.06,13920,19.38,74040.3,4.27,-18.83,-20.35,0,*73
1499807059.32,13921,19.38,74040.5,4.31,-18.89,-20.39,0,*73
1499807060.58,13922,19.44,74040.0,4.29,-18.93,-20.35,0,*7E
1499807061.81,13923,19.38,74038.8,4.31,-18.65,-20.09,0,*70
1499807063.01,13924,19.38,74034.5,4.29,-18.65,-20.05,0,*72
1499807064.27,13925,19.38,74034.3,4.31,-18.59,-20.09,0,*79
1499807065.52,13926,19.38,74038.8,4.31,-18.59,-19.99,0,*79
1499807066.77,13927,19.38,74034.8,4.31,-18.55,-19.99,0,*74
1499807068.02,13928,19.38,74036.0,4.31,-18.59,-19.99,0,*77
1499807069.25,13929,19.38,74036.5,4.31,-18.65,-19.99,0,*79
1499807070.51,13930,19.38,74038.5,4.31,-18.59,-19.99,0,*7E
1499807071.76,13931,19.38,74032.8,4.31,-18.59,-20.09,0,*7C
1499807072.99,13932,19.44,74032.8,4.29,-18.99,-20.35,0,*75
1499807074.22,13933,19.38,74032.8,4.29,-19.07,-20.49,0,*79
1499807075.46,13934,19.38,74038.0,4.31,-19.07,-20.43,0,*7D
1499807076.69,13935,19.44,74038.0,4.29,-18.93,-20.29,0,*75
1499807077.92,13936,19.38,74038.3,4.29,-18.83,-20.15,0,*78
1499807079.17,13937,19.38,74036.3,4.31,-18.79,-20.15,0,*75
1499807080.4,13938,19.44,74040.3,4.29,-18.83,-20.19,0,*7A
1499807081.65,13939,19.44,74038.5,4.31,-18.79,-20.15,0,*7B
1499807082.9,13940,19.38,74028.0,4.31,-18.45,-19.81,0,*7D
1499807084.14,13941,19.38,74028.5,4.31,-18.73,-20.09,0,*73
1499807085.36,13942,19.38,74024.0,4.33,-18.79,-20.15,0,*75
1499807086.64,13943,19.44,74028.0,4.31,-18.59,-19.85,0,*77
1499807087.89,13944,19.38,74024.0,4.33,-18.55,-19.85,0,*7E
1499807089.09,13945,19.44,74024.0,4.33,-18.45,-19.71,0,*75
1499807090.32,13946,19.38,74030.8,4.33,-18.59,-19.95,0,*71
1499807091.55,13947,19.38,74024.8,4.31,-18.65,-19.99,0,*71
1499807092.8,13948,19.38,74032.0,4.31,-18.65,-19.85,0,*73
1499807094.02,13949,19.38,74024.3,4.33,-18.89,-20.09,0,*7C
1499807095.26,13950,19.38,74022.3,4.33,-18.93,-20.09,0,*7F
1499807096.49,13951,19.44,74020.8,4.31,-18.79,-19.99,0,*7B
1499807097.74,13952,19.38,74022.3,4.31,-18.89,-19.99,0,*77
1499807098.96,13953,19.38,74024.5,4.33,-18.89,-20.09,0,*77
1499807100.2,13954,19.38,74022.0,4.31,-19.03,-20.25,0,*7F
1499807101.42,13955,19.38,74024.0,4.33,-18.89,-20.09,0,*71
1499807102.65,13956,19.38,74026.0,4.33,-18.89,-20.09,0,*72
1499807103.87,13957,19.38,74026.8,4.33,-18.89,-20.09,0,*73
1499807105.1,13958,19.38,74028.5,4.33,-18.89,-19.99,0,*7F
1499807106.32,13959,19.44,74034.8,4.33,-18.89,-19.99,0,*7E
1499807107.55,13960,19.38,74028.0,4.33,-18.93,-20.09,0,*7C
1499807108.78,13961,19.38,74030.5,4.35,-19.13,-20.09,0,*72
1499807110.01,13962,19.38,74032.3,4.33,-19.03,-20.15,0,*7B
1499807111.21,13963,19.38,74032.8,4.33,-19.07,-20.25,0,*7D
1499807112.43,13964,19.38,74036.5,4.33,-19.17,-20.39,0,*76
1499807113.7,13965,19.38,74038.5,4.31,-19.23,-20.39,0,*72
1499807114.93,13966,19.38,74036.8,4.31,-19.07,-20.25,0,*7A
1499807116.16,13967,19.38,74036.5,4.31,-19.03,-20.25,0,*7F
1499807117.44,13968,19.38,74038.8,4.31,-18.93,-20.15,0,*7B
1499807118.72,13969,19.38,74040.0,4.31,-18.93,-20.15,0,*7A
1499807119.98,13970,19.38,74040.8,4.29,-18.93,-20.19,0,*77
1499807121.2,13971,19.38,74042.3,4.29,-18.99,-20.15,0,*70
1499807122.46,13972,19.38,74042.0,4.31,-19.07,-20.15,0,*7C
1499807123.68,13973,19.38,74044.8,4.31,-19.03,-19.99,0,*77
1499807124.94,13974,19.38,74046.0,4.31,-18.93,-19.95,0,*74
1499807126.2,13975,19.38,74048.3,4.31,-18.89,-19.95,0,*7E
1499807127.45,13976,19.38,74044.3,4.31,-18.89,-19.95,0,*7D
1499807128.71,13977,19.38,74046.3,4.31,-18.93,-19.99,0,*7B
1499807129.99,13978,19.38,74042.5,4.31,-18.93,-19.85,0,*79
1499807131.27,13979,19.38,74048.5,4.31,-18.93,-19.85,0,*78
1499807132.5,13980,19.38,74046.5,4.29,-18.93,-19.99,0,*7A
1499807133.73,13981,19.38,74046.0,4.29,-18.99,-19.85,0,*7C
1499807134.98,13982,19.38,74042.5,4.29,-18.93,-19.85,0,*75
1499807136.24,13983,19.38,74042.3,4.29,-18.93,-19.85,0,*74
1499807137.47,13984,19.38,74042.5,4.29,-18.99,-19.85,0,*79
1499807138.67,13985,19.38,74044.5,4.29,-19.07,-19.75,0,*71
1499807139.88,13986,19.38,74040.3,4.29,-18.99,-19.75,0,*74
1499807141.11,13987,19.38,74042.5,4.29,-18.93,-19.71,0,*7B
1499807142.34,13988,19.38,74042.8,4.29,-18.93,-19.71,0,*74
1499807143.54,13989,19.38,74044.8,4.29,-18.83,-19.71,0,*74
1499807144.77,13990,19.38,74042.3,4.29,-18.93,-19.71,0,*7D
1499807146.0,13991,19.38,74040.8,4.27,-18.83,-19.57,0,*77
1499807147.2,13992,19.38,74040.8,4.29,-18.83,-19.51,0,*7C
1499807148.43,13993,19.38,74042.8,4.29,-18.83,-19.41,0,*7C
1499807149.66,13994,19.38,74042.3,4.29,-18.93,-19.51,0,*7B
1499807150.89,13995,19.38,74034.5,4.29,-18.93,-19.51,0,*7A
1499807152.12,13996,19.38,74036.3,4.29,-18.79,-19.41,0,*7C
1499807153.34,13997,19.38,74038.8,4.29,-18.59,-19.07,0,*7D
1499807154.59,13998,19.38,74040.0,4.31,-18.59,-19.17,0,*7A
1499807155.84,13999,19.38,74038.8,4.31,-18.41,-18.93,0,*7F
1499807157.13,14000,19.38,74036.8,4.31,-18.31,-18.93,0,*76
1499807158.34,14001,19.38,74036.3,4.33,-18.59,-19.07,0,*77
1499807159.54,14002,19.38,74028.0,4.29,-18.49,-19.07,0,*7E
1499807160.77,14003,19.38,74032.0,4.29,-18.79,-19.27,0,*7E
1499807161.98,14004,19.38,74034.0,4.31,-18.73,-19.07,0,*78
1499807163.19,14005,19.38,74028.8,4.29,-18.69,-19.13,0,*7E
1499807164.47,14006,19.38,74036.3,4.31,-18.55,-18.93,0,*72
1499807165.69,14007,19.38,74032.3,4.31,-18.45,-18.79,0,*76
1499807166.92,14008,19.38,74030.3,4.31,-18.41,-18.73,0,*77
1499807168.13,14009,19.38,74028.5,4.33,-18.25,-18.73,0,*76
1499807169.33,14010,19.38,74030.8,4.33,-18.41,-18.73,0,*7C
1499807170.58,14011,19.38,74028.8,4.33,-18.55,-18.93,0,*76
1499807171.81,14012,19.38,74032.5,4.31,-18.41,-18.65,0,*7B
1499807173.02,14013,19.38,74034.8,4.33,-18.45,-18.73,0,*7B
1499807174.23,14014,19.38,74034.0,4.33,-18.41,-18.73,0,*78
1499807175.46,14015,19.38,74044.0,4.33,-18.31,-18.65,0,*79
1499807176.68,14016,19.38,74034.5,4.33,-18.25,-18.55,0,*7C
1499807177.9,14017,19.38,74030.3,4.33,-18.17,-18.55,0,*7C
1499807179.15,14018,19.38,74028.0,4.35,-17.97,-18.25,0,*75
1499807180.4,14019,19.38,74028.3,4.39,-18.35,-18.69,0,*77
1499807181.62,14020,19.38,74034.8,4.35,-18.49,-18.73,0,*71
1499807182.86,14021,19.38,74026.3,4.35,-18.41,-18.59,0,*70
1499807184.09,14022,19.38,74022.5,4.35,-18.41,-18.69,0,*70
1499807185.33,14023,19.38,74022.8,4.35,-18.55,-18.73,0,*7F
1499807186.56,14024,19.44,74024.0,4.35,-18.41,-18.73,0,*7D
1499807187.83,14025,19.38,74026.5,4.35,-18.35,-18.55,0,*7B
1499807189.06,14026,19.38,74026.5,4.35,-18.41,-18.69,0,*74
1499807190.28,14027,19.38,74022.8,4.35,-18.49,-18.69,0,*7D
1499807191.55,14028,19.38,74022.5,4.39,-18.35,-18.59,0,*76
1499807192.77,14029,19.38,74020.5,4.35,-18.25,-18.49,0,*7B
1499807194.01,14030,19.44,74034.0,4.35,-18.25,-18.35,0,*78
1499807195.23,14031,19.38,74032.8,4.35,-18.25,-18.41,0,*7A
1499807196.45,14032,19.38,74030.3,4.35,-18.21,-18.25,0,*7F
1499807197.67,14033,19.38,74028.5,4.39,-18.25,-18.41,0,*74
1499807198.88,14034,19.38,74032.3,4.39,-18.25,-18.41,0,*73
1499807200.1,14035,19.38,74040.0,4.39,-18.25,-18.49,0,*7A
1499807201.35,14036,19.38,74030.3,4.39,-18.41,-18.55,0,*76
1499807202.57,14037,19.38,74030.0,4.35,-18.07,-18.25,0,*7E
1499807203.79,14038,19.38,74030.3,4.39,-18.07,-18.21,0,*79
1499807205.06,14039,19.38,74026.8,4.39,-17.63,-17.79,0,*77
1499807206.31,14040,19.38,74020.8,4.39,-17.55,-17.69,0,*7D
1499807207.53,14041,19.38,74016.0,4.41,-17.25,-17.31,0,*79
1499807208.78,14042,19.38,74016.3,4.43,-17.25,-17.35,0,*7C
1499807210.04,14043,19.38,74024.0,4.43,-17.21,-17.35,0,*79
1499807211.26,14044,19.38,74020.3,4.41,-17.41,-17.49,0,*71
1499807212.46,14045,19.38,74022.8,4.41,-17.31,-17.49,0,*77
1499807213.71,14046,19.38,74010.8,4.43,-17.35,-17.41,0,*7A
1499807214.99,14047,19.38,74016.5,4.43,-17.11,-17.07,0,*7F
1499807216.24,14048,19.38,74026.0,4.43,-16.97,-17.07,0,*7F
1499807217.52,14049,19.38,74020.3,4.47,-17.17,-17.17,0,*72
1499807218.79,14050,19.38,74022.5,4.47,-17.21,-17.17,0,*7F
1499807220.04,14051,19.38,74028.5,4.47,-17.31,-17.41,0,*7C
1499807221.32,14052,19.38,74030.5,4.47,-17.21,-17.21,0,*78
1499807222.57,14053,19.38,74026.3,4.47,-17.31,-17.41,0,*7E
1499807223.77,14054,19.38,74024.8,4.49,-17.49,-17.49,0,*70
1499807225.0,14055,19.38,74018.5,4.49,-17.35,-17.41,0,*72
1499807226.24,14056,19.38,74024.0,4.51,-17.31,-17.17,0,*7F
1499807227.47,14057,19.38,74022.3,4.51,-17.31,-17.35,0,*7E
1499807228.68,14058,19.38,74010.3,4.51,-17.31,-17.31,0,*75
1499807229.95,14059,19.38,74016.0,4.51,-17.11,-17.11,0,*74
1499807231.2,14060,19.38,74026.5,4.51,-17.25,-17.31,0,*7B
1499807232.45,14061,19.38,74028.5,4.51,-17.17,-17.49,0,*74
1499807233.69,14062,19.38,74028.0,4.51,-17.59,-17.73,0,*74
1499807234.94,14063,19.38,74032.0,4.51,-17.49,-17.63,0,*75
1499807236.14,14064,19.38,74034.5,4.49,-17.69,-17.83,0,*77
1499807237.39,14065,19.38,74032.3,4.51,-17.87,-17.93,0,*7E
1499807238.65,14066,19.38,74028.0,4.51,-17.79,-17.93,0,*7C
1499807239.89,14067,19.38,74036.3,4.51,-17.73,-17.93,0,*77
1499807241.15,14068,19.44,74038.5,4.49,-17.93,-17.97,0,*7B
1499807242.41,14069,19.38,74034.5,4.49,-17.97,-17.97,0,*7E
1499807243.64,14070,19.38,74034.5,4.49,-17.93,-18.11,0,*73
1499807244.9,14071,19.38,74038.8,4.49,-17.97,-17.97,0,*77
1499807246.16,14072,19.38,74036.0,4.49,-17.97,-17.97,0,*74
1499807247.41,14073,19.38,74038.8,4.49,-17.93,-17.93,0,*75
1499807248.63,14074,19.38,74036.0,4.49,-17.83,-17.79,0,*77
1499807249.87,14075,19.38,74038.5,4.49,-17.83,-17.97,0,*76
1499807251.09,14076,19.38,74040.8,4.49,-17.63,-17.83,0,*7E
1499807252.35,14077,19.38,74038.0,4.47,-17.35,-17.55,0,*79
1499807253.6,14078,19.38,74038.3,4.47,-17.41,-17.69,0,*7A
1499807254.82,14079,19.38,74038.0,4.45,-17.55,-17.73,0,*77
1499807256.02,14080,19.38,74036.5,4.45,-17.69,-17.69,0,*75
1499807257.23,14081,19.38,74034.8,4.45,-17.83,-17.83,0,*74
1499807258.48,14082,19.38,74038.3,4.47,-17.79,-17.83,0,*70
1499807259.73,14083,19.38,74040.5,4.47,-17.83,-17.79,0,*71
1499807260.96,14084,19.38,74040.5,4.45,-17.97,-17.87,0,*70
1499807262.17,14085,19.38,74040.3,4.45,-17.87,-17.83,0,*74
1499807263.4,14086,19.38,74038.8,4.45,-17.97,-17.73,0,*79
1499807264.63,14087,19.38,74036.5,4.47,-17.83,-17.69,0,*74
1499807265.82,14088,19.38,74040.5,4.45,-17.83,-17.73,0,*72
1499807267.05,14089,19.38,74038.5,4.43,-17.83,-17.69,0,*7E
1499807268.27,14090,19.38,74040.0,4.43,-17.73,-17.69,0,*79
1499807269.52,14091,19.38,74038.8,4.43,-17.73,-17.59,0,*7B
1499807270.76,14092,19.38,74040.0,4.43,-17.73,-17.59,0,*78
1499807272.04,14093,19.38,74038.8,4.43,-17.55,-17.55,0,*71
1499807273.31,14094,19.38,74036.5,4.43,-17.45,-17.41,0,*72
1499807274.56,14095,19.38,74040.5,4.41,-17.59,-17.45,0,*78
1499807275.81,14096,19.38,74040.0,4.41,-17.59,-17.45,0,*7B
1499807277.07,14097,19.38,74038.3,4.45,-17.45,-17.41,0,*77
1499807278.31,14098,19.38,74042.5,4.41,-17.59,-17.45,0,*75
1499807279.57,14099,19.38,74036.3,4.41,-17.45,-17.45,0,*79
1499807280.83,14100,19.38,74036.3,4.43,-17.45,-17.35,0,*7D
1499807282.05,14101,19.38,74038.0,4.41,-17.49,-17.41,0,*71
1499807283.31,14102,19.38,74038.5,4.41,-17.45,-17.41,0,*7E
1499807284.53,14103,19.38,74046.5,4.41,-17.49,-17.41,0,*73
1499807285.75,14104,19.38,74042.8,4.41,-17.31,-17.17,0,*78
1499807287.03,14105,19.38,74028.0,4.43,-17.25,-17.03,0,*7B
1499807288.25,14106,19.38,74020.5,4.41,-17.25,-16.97,0,*76
1499807289.5,14107,19.38,74010.3,4.41,-17.25,-17.17,0,*7E
1499807290.75,14108,19.38,74024.5,4.41,-17.41,-17.41,0,*70
1499807291.98,14109,19.38,74024.8,4.41,-17.11,-16.97,0,*7E
1499807293.22,14110,19.38,74022.3,4.43,-17.11,-16.89,0,*7B
1499807294.43,14111,19.38,74022.8,4.41,-17.11,-16.89,0,*78
1499807295.64,14112,19.38,74018.0,4.41,-16.83,-16.75,0,*72
1499807296.89,14113,19.38,74018.8,4.43,-16.79,-16.65,0,*75
1499807298.14,14114,19.38,74026.8,4.41,-16.65,-16.51,0,*7A
1499807299.38,14115,19.38,74020.3,4.43,-16.51,-16.37,0,*7E
1499807300.63,14116,19.38,74016.3,4.43,-16.65,-16.37,0,*7A
1499807301.83,14117,19.38,74022.3,4.45,-16.55,-16.45,0,*7B
1499807303.05,14118,19.38,74022.0,4.45,-16.83,-16.69,0,*71